When you browse on this site, cookies collect data to enhance your experience and personalize the content and advertising you see.
Visit our Privacy Policy to learn more. By continuing to use the site, you agree to this use of cookies and data.

Hourly Weather l'Hospitalet de Llobregat

Today, 18 September, Friday

Time Temperature Precipitation Wind Pressure Humidity
00:00 +28°C° 0 mm 2 mps 754 mmHg 53%
01:00 +27°C° 0 mm 1 mps 754 mmHg 54%
02:00 +27°C° 0 mm 1 mps 754 mmHg 56%
03:00 +27°C° 0 mm 1 mps 754 mmHg 57%
04:00 +27°C° 0 mm 1 mps 754 mmHg 59%
05:00 +26°C° 0 mm 1 mps 754 mmHg 61%
06:00 +26°C° 0 mm 1 mps 755 mmHg 64%
07:00 +27°C° 0.1 mm 2 mps 755 mmHg 61%
08:00 +28°C° 0.1 mm 2 mps 755 mmHg 59%
09:00 +28°C° 0.1 mm 2 mps 755 mmHg 57%
10:00 +28°C° 0.2 mm 3 mps 755 mmHg 60%
11:00 +28°C° 0.2 mm 3 mps 755 mmHg 63%
12:00 +26°C° 0 mm 3 mps 756 mmHg 69%
13:00 +27°C° 0.1 mm 3 mps 755 mmHg 64%
14:00 +27°C° 0.1 mm 3 mps 755 mmHg 60%
15:00 +28°C° 0.1 mm 3 mps 754 mmHg 56%
16:00 +27°C° 0.4 mm 3 mps 754 mmHg 59%
17:00 +27°C° 0.4 mm 3 mps 754 mmHg 63%
18:00 +26°C° 0.4 mm 4 mps 753 mmHg 67%
19:00 +26°C° 0.1 mm 3 mps 754 mmHg 68%
20:00 +26°C° 0.1 mm 2 mps 754 mmHg 70%
21:00 +25°C° 0.1 mm 1 mps 754 mmHg 71%
22:00 +25°C° 0.9 mm 1 mps 754 mmHg 74%
23:00 +25°C° 0.9 mm 1 mps 754 mmHg 77%

Tomorrow, 19 September, Saturday

Time Temperature Precipitation Wind Pressure Humidity
00:00 +24°C° 0.9 mm 2 mps 754 mmHg 80%
01:00 +24°C° 0.5 mm 2 mps 754 mmHg 78%
02:00 +24°C° 0.5 mm 2 mps 754 mmHg 76%
03:00 +24°C° 0.5 mm 1 mps 753 mmHg 74%
04:00 +24°C° 0.7 mm 2 mps 753 mmHg 73%
05:00 +24°C° 0.7 mm 2 mps 753 mmHg 73%
06:00 +24°C° 0.7 mm 2 mps 753 mmHg 72%
07:00 +25°C° 0.2 mm 2 mps 753 mmHg 66%
08:00 +26°C° 0.2 mm 3 mps 753 mmHg 59%
09:00 +28°C° 0.2 mm 3 mps 753 mmHg 52%
10:00 +28°C° 0 mm 3 mps 753 mmHg 48%
11:00 +29°C° 0 mm 4 mps 753 mmHg 44%
12:00 +30°C° 0 mm 4 mps 753 mmHg 40%
13:00 +30°C° 0 mm 4 mps 752 mmHg 41%
14:00 +30°C° 0 mm 5 mps 752 mmHg 41%
15:00 +30°C° 0 mm 5 mps 752 mmHg 41%
16:00 +29°C° 0 mm 5 mps 752 mmHg 43%
17:00 +28°C° 0 mm 4 mps 752 mmHg 45%
18:00 +28°C° 0 mm 4 mps 752 mmHg 47%
19:00 +27°C° 0 mm 4 mps 752 mmHg 48%
20:00 +27°C° 0 mm 4 mps 753 mmHg 49%
21:00 +27°C° 0 mm 4 mps 753 mmHg 50%
22:00 +26°C° 0.1 mm 4 mps 753 mmHg 51%
23:00 +26°C° 0.1 mm 3 mps 753 mmHg 53%

Day after tomorrow, 20 September, Sunday

Time Temperature Precipitation Wind Pressure Humidity
00:00 +26°C° 0.1 mm 3 mps 753 mmHg 54%
01:00 +25°C° 0 mm 3 mps 753 mmHg 53%
02:00 +25°C° 0 mm 2 mps 753 mmHg 53%
03:00 +25°C° 0 mm 2 mps 752 mmHg 53%
04:00 +24°C° 0 mm 2 mps 753 mmHg 53%
05:00 +24°C° 0 mm 2 mps 753 mmHg 54%
06:00 +23°C° 0 mm 2 mps 753 mmHg 55%
07:00 +25°C° 0 mm 2 mps 753 mmHg 51%
08:00 +26°C° 0 mm 3 mps 753 mmHg 48%
09:00 +27°C° 0 mm 3 mps 753 mmHg 45%
10:00 +28°C° 0 mm 3 mps 753 mmHg 42%
11:00 +29°C° 0 mm 3 mps 753 mmHg 40%
12:00 +30°C° 0 mm 4 mps 753 mmHg 37%
13:00 +30°C° 0 mm 4 mps 753 mmHg 38%
14:00 +30°C° 0 mm 4 mps 753 mmHg 38%
15:00 +30°C° 0 mm 5 mps 753 mmHg 39%
16:00 +29°C° 0 mm 5 mps 753 mmHg 44%
17:00 +28°C° 0 mm 4 mps 753 mmHg 49%
18:00 +27°C° 0 mm 4 mps 753 mmHg 54%
19:00 +27°C° 0 mm 4 mps 753 mmHg 55%
20:00 +26°C° 0 mm 3 mps 754 mmHg 56%
21:00 +26°C° 0 mm 3 mps 754 mmHg 58%
22:00 +26°C° 0.1 mm 3 mps 754 mmHg 58%
23:00 +26°C° 0.1 mm 2 mps 754 mmHg 59%

21 September, Monday

Time Temperature Precipitation Wind Pressure Humidity
00:00 +25°C° 0.1 mm 2 mps 753 mmHg 59%
01:00 +25°C° 0.1 mm 2 mps 753 mmHg 60%
02:00 +25°C° 0.1 mm 2 mps 753 mmHg 60%
03:00 +24°C° 0.1 mm 2 mps 753 mmHg 60%
04:00 +24°C° 0.1 mm 2 mps 753 mmHg 60%
05:00 +24°C° 0.1 mm 1 mps 753 mmHg 60%
06:00 +24°C° 0.1 mm 1 mps 753 mmHg 59%
07:00 +25°C° 0.1 mm 2 mps 753 mmHg 56%
08:00 +26°C° 0.1 mm 2 mps 754 mmHg 54%
09:00 +27°C° 0.1 mm 3 mps 754 mmHg 51%
10:00 +27°C° 0.1 mm 3 mps 754 mmHg 50%
11:00 +28°C° 0.1 mm 3 mps 753 mmHg 50%
12:00 +29°C° 0.1 mm 3 mps 753 mmHg 49%
13:00 +29°C° 0.1 mm 3 mps 753 mmHg 50%
14:00 +28°C° 0.1 mm 3 mps 753 mmHg 51%
15:00 +28°C° 0.1 mm 3 mps 752 mmHg 52%
16:00 +28°C° 0 mm 3 mps 752 mmHg 55%
17:00 +27°C° 0 mm 2 mps 752 mmHg 58%
18:00 +26°C° 0 mm 2 mps 752 mmHg 61%
19:00 +26°C° 0 mm 2 mps 752 mmHg 62%
20:00 +26°C° 0 mm 1 mps 752 mmHg 63%
21:00 +26°C° 0 mm 1 mps 753 mmHg 65%
22:00 +25°C° 0.3 mm 1 mps 752 mmHg 66%
23:00 +25°C° 0.3 mm 2 mps 752 mmHg 67%

22 September, Tuesday

Time Temperature Precipitation Wind Pressure Humidity
00:00 +25°C° 0.3 mm 2 mps 752 mmHg 69%
01:00 +25°C° 0.3 mm 2 mps 751 mmHg 66%
02:00 +24°C° 0.3 mm 2 mps 751 mmHg 64%
03:00 +24°C° 0.3 mm 2 mps 751 mmHg 62%
04:00 +24°C° 0 mm 2 mps 751 mmHg 61%
05:00 +24°C° 0 mm 2 mps 751 mmHg 59%
06:00 +24°C° 0 mm 2 mps 751 mmHg 58%
07:00 +25°C° 0.3 mm 2 mps 751 mmHg 56%
08:00 +26°C° 0.3 mm 2 mps 751 mmHg 53%
09:00 +27°C° 0.3 mm 2 mps 751 mmHg 50%
10:00 +28°C° 0.1 mm 3 mps 751 mmHg 47%
11:00 +29°C° 0.1 mm 3 mps 751 mmHg 43%
12:00 +30°C° 0.1 mm 3 mps 751 mmHg 40%
13:00 +30°C° 0 mm 4 mps 750 mmHg 39%
14:00 +30°C° 0 mm 4 mps 750 mmHg 38%
15:00 +30°C° 0 mm 5 mps 749 mmHg 38%
16:00 +29°C° 0 mm 5 mps 749 mmHg 40%
17:00 +28°C° 0 mm 5 mps 749 mmHg 43%
18:00 +27°C° 0 mm 5 mps 749 mmHg 46%
19:00 +27°C° 0 mm 4 mps 750 mmHg 48%
20:00 +27°C° 0 mm 4 mps 750 mmHg 49%
21:00 +26°C° 0 mm 4 mps 750 mmHg 50%
22:00 +26°C° 0 mm 3 mps 750 mmHg 51%
23:00 +26°C° 0 mm 3 mps 750 mmHg 52%

23 September, Wednesday

Time Temperature Precipitation Wind Pressure Humidity
00:00 +25°C° 0 mm 3 mps 750 mmHg 52%
01:00 +25°C° 0.3 mm 3 mps 750 mmHg 54%
02:00 +25°C° 0.3 mm 2 mps 750 mmHg 55%
03:00 +24°C° 0.3 mm 2 mps 750 mmHg 56%
04:00 +24°C° 0.1 mm 2 mps 750 mmHg 56%
05:00 +24°C° 0.1 mm 2 mps 750 mmHg 56%
06:00 +23°C° 0.1 mm 2 mps 750 mmHg 57%
07:00 +24°C° 0.1 mm 3 mps 750 mmHg 55%
08:00 +25°C° 0.1 mm 3 mps 750 mmHg 53%
09:00 +26°C° 0.1 mm 3 mps 750 mmHg 51%
10:00 +27°C° 0.2 mm 3 mps 750 mmHg 50%
11:00 +27°C° 0.2 mm 3 mps 750 mmHg 49%
12:00 +28°C° 0.2 mm 3 mps 749 mmHg 47%
13:00 +28°C° 0.1 mm 3 mps 749 mmHg 49%
14:00 +27°C° 0.1 mm 3 mps 749 mmHg 51%
15:00 +27°C° 0.1 mm 3 mps 749 mmHg 52%
16:00 +27°C° 0.2 mm 3 mps 748 mmHg 55%
17:00 +26°C° 0.2 mm 3 mps 748 mmHg 58%
18:00 +25°C° 0.2 mm 2 mps 748 mmHg 60%
19:00 +25°C° 0.3 mm 3 mps 748 mmHg 62%
20:00 +25°C° 0.3 mm 3 mps 748 mmHg 63%
21:00 +24°C° 0.3 mm 3 mps 749 mmHg 65%
22:00 +24°C° 0.4 mm 3 mps 748 mmHg 64%
23:00 +24°C° 0.4 mm 3 mps 748 mmHg 63%
Show more